[[{"header":{"parameterUnit":"m.s-1","parameterCategory":2,"la1":30.2991,"la2":30.254,"lo1":-89.0895,"lo2":-89.0444,"dy":0.0017,"dx":0.0017,"nx":28,"ny":28,"refTime":"2025-07-07T03:00:00:Z","depth":"0","parameterNumber":2,"parameterNumberName":"U-component_of_CURRENTS"},"data":[0,0,0,0,0,0,0,0,0,0,0,0,0,0,0,0,0,0,0,0,0,0,0,0,0,0,0,0,0,0,0,0,0,0,0,0,0,0,0,0,0,0,0,0,0,0,0,0,0,0,0,0,0,0,0,0,0,0,0.3208,0.3208,0,0.3217,0.3217,0.3216,0.3141,0.3139,0.3137,0.3136,0.3123,0.3125,0.3126,0,0,0,0,0,0,0,0,0,0,0,0,0,0.3238,0.3237,0.3208,0.3208,0.3209,0.3217,0.3217,0.3216,0.3141,0.3139,0.3137,0.3135,0.3123,0.3125,0.3126,0,0,0,0,0,0,0,0,0,0,0,0,0,0.3231,0.3237,0.3208,0.3174,0.3171,0.3217,0.3217,0.3216,0.3142,0.3139,0.3136,0.3134,0.3122,0.3124,0.3127,0.3196,0,0,0.3133,0.3134,0,0,0,0,0,0,0,0,0.3232,0.323,0.3178,0.3176,0.3173,0.3177,0.3223,0.321,0.3143,0.3151,0.3135,0.3132,0.3143,0.3143,0.3148,0.3196,0.3195,0.3133,0.3135,0.3136,0.3136,0,0,0,0,0,0,0,0.3232,0.323,0.3209,0.3179,0.3176,0.3197,0.3191,0.322,0.316,0.315,0.3145,0.315,0.3141,0.3146,0.3147,0.3195,0.3133,0.3135,0.3136,0.3137,0.332,0.3323,0,0,0,0,0,0,0.3233,0.323,0.3209,0.321,0.3199,0.3198,0.3192,0.3177,0.316,0.3156,0.3153,0.3147,0.3144,0.3145,0.3147,0.3229,0.3135,0.3138,0.3139,0.3316,0.3321,0.3325,0,0,0,0,0,0,0.3233,0.323,0.3208,0.3223,0.3222,0.32,0.3184,0.3178,0.3179,0.3163,0.3157,0.3159,0.3142,0.3144,0.3184,0.3227,0.3138,0.314,0.3312,0.3318,0.3323,0.3394,0,0,0,0,0,0,0.3234,0.323,0.3232,0.3222,0.3221,0.3238,0.3187,0.3181,0.3189,0.3181,0.3168,0.3163,0.314,0.3181,0.3186,0.3229,0.3142,0.3308,0.3315,0.3321,0.3387,0.3401,0.3413,0,0,0,0,0,0.3234,0.3247,0.3231,0.323,0.3219,0.324,0.3241,0.3215,0.3192,0.3204,0.3201,0.3163,0.3227,0.3186,0.3191,0.3235,0.3305,0.3313,0.3321,0.3381,0.3398,0.3412,0,0,0,0,0,0,0.326,0.3241,0.3223,0.3226,0.3234,0.3227,0.3242,0.3231,0.324,0.3232,0.3207,0.3205,0.3258,0.3253,0.3208,0.3314,0.3262,0.3272,0.3307,0.3322,0.3335,0.3324,0.3144,0,0,0,0,0,0.327,0.3268,0.326,0.3265,0.327,0.3261,0.3271,0.3256,0.3261,0.326,0.3251,0.3264,0.3302,0.3312,0.3335,0.3396,0.3413,0.3433,0.3446,0.3457,0.3456,0.3553,0.3574,0.3351,0.3351,0.3351,0,0,0.3279,0.3273,0.3269,0.3272,0.3272,0.3289,0.3258,0.3277,0.3296,0.3263,0.329,0.3308,0.3331,0.3389,0.3414,0.3384,0.3531,0.3467,0.3475,0.3469,0.3564,0.3585,0.3604,0.3356,0.3355,0.3355,0,0,0.3302,0.3293,0.3298,0.3309,0.332,0.3324,0.3333,0.3335,0.3338,0.3383,0.3371,0.3421,0.3456,0.3486,0.3507,0.3618,0.3598,0.3626,0.3676,0.3772,0.379,0.3806,0.3852,0.3872,0.363,0.363,0.363,0,0.3313,0.331,0.331,0.3323,0.3337,0.334,0.3359,0.3382,0.3397,0.3427,0.3398,0.3498,0.3508,0.3604,0.3632,0.3645,0.3676,0.3606,0.3786,0.3802,0.3818,0.3861,0.3882,0.3634,0.3634,0.3633,0.3633,0,0.3331,0.3338,0.335,0.3358,0.3384,0.3405,0.3431,0.3466,0.3479,0.3501,0.3589,0.3618,0.3676,0.3699,0.3692,0.3817,0.3795,0.379,0.3736,0.3844,0.3883,0.3904,0.364,0.3639,0.3638,0.3636,0,0,0.331,0.3351,0.3348,0.3366,0.3401,0.3424,0.3485,0.3545,0.3601,0.3633,0.3716,0.3783,0.3799,0.3827,0.3841,0.3912,0.4045,0.3893,0.3895,0.3919,0.4227,0.4046,0.405,0.4071,0.4075,0.4078,0.4208,0,0.3314,0.3346,0.3369,0.3413,0.3433,0.3477,0.3539,0.3604,0.3661,0.3749,0.3812,0.3893,0.385,0.3895,0.3963,0.404,0.4103,0.4008,0.4135,0.4138,0.3949,0.4069,0.3819,0.3899,0.4227,0.4231,0.4233,0,0.3298,0.3331,0.3366,0.3447,0.3461,0.3498,0.3606,0.3668,0.3801,0.3852,0.3942,0.3989,0.411,0.4059,0.422,0.4161,0.4194,0.4233,0.4239,0.4054,0.3995,0.3849,0.3923,0.3836,0.4264,0.4261,0.4259,0,0.3262,0.3322,0.3355,0.3374,0.3469,0.3511,0.3575,0.3695,0.3777,0.3929,0.4012,0.4132,0.4222,0.4297,0.4343,0.4311,0.4502,0.4478,0.4339,0.4325,0.4126,0.4086,0.4109,0.4589,0.4588,0.4588,0.4588,0,0.3239,0.3261,0.3341,0.3359,0.3433,0.3502,0.3612,0.3692,0.3842,0.3953,0.4061,0.4165,0.4291,0.4395,0.4413,0.4426,0.4563,0.4363,0.436,0.4141,0.4103,0.4025,0.3996,0.4593,0.4592,0.4591,0.459,0,0.3175,0.3221,0.3274,0.3377,0.3411,0.3466,0.3622,0.3712,0.3849,0.4004,0.4061,0.4246,0.4357,0.4431,0.4571,0.4507,0.4403,0.4506,0.4204,0.4161,0.389,0.3872,0.3759,0.3662,0.4386,0.4382,0.4379,0,0.3138,0.3158,0.327,0.332,0.3362,0.3465,0.3545,0.3693,0.3792,0.403,0.4101,0.4265,0.4317,0.443,0.4359,0.4343,0.4283,0.4116,0.3995,0.3848,0.3833,0.3723,0.3645,0.3779,0.3771,0.3765,0.376,0,0.31,0.3142,0.3206,0.33,0.3377,0.3458,0.3577,0.3652,0.3833,0.393,0.4066,0.4124,0.4189,0.4047,0.4008,0.3975,0.3881,0.398,0.3944,0.3443,0.3217,0.3128,0.3706,0.3704,0.371,0.3714,0.3717,0.3719,0.3087,0.3118,0.3218,0.3287,0.3371,0.3421,0.3431,0.3552,0.364,0.371,0.389,0.384,0.3799,0.3672,0.3629,0.3384,0.3456,0.326,0.3282,0.3211,0.3002,0.3411,0.3324,0.3327,0.333,0.3332,0.3335,0,0.3072,0.312,0.3202,0.3267,0.3289,0.3349,0.3423,0.3383,0.3379,0.3452,0.3473,0.3333,0.3157,0.3111,0.2882,0.2728,0.2636,0.2673,0.2509,0.2494,0.2963,0.2818,0.2474,0.2474,0.2474,0.2474,0.2475,0.2475,0.3082,0.3136,0.3157,0.3163,0.3177,0.3112,0.3092,0.304,0.3035,0.2886,0.2749,0.2743,0.2764,0.2619,0.2393,0.2322,0.2212,0.2022,0.2147,0.2514,0.2572,0.2627,0.2486,0.2078,0.2077,0.1527,0.1522,0.1519]},{"header":{"parameterUnit":"m.s-1","parameterCategory":2,"la1":30.2991,"la2":30.254,"lo1":-89.0895,"lo2":-89.0444,"dy":0.0017,"dx":0.0017,"nx":28,"ny":28,"refTime":"2025-07-07T03:00:00:Z","depth":"0","parameterNumber":3,"parameterNumberName":"V-component_of_CURRENTS"},"data":[0,0,0,0,0,0,0,0,0,0,0,0,0,0,0,0,0,0,0,0,0,0,0,0,0,0,0,0,0,0,0,0,0,0,0,0,0,0,0,0,0,0,0,0,0,0,0,0,0,0,0,0,0,0,0,0,0,0,0.0305,0.0304,0,0.0294,0.0293,0.0293,0.0269,0.0269,0.0269,0.0268,0.0242,0.0242,0.0241,0,0,0,0,0,0,0,0,0,0,0,0,0,0.0292,0.0293,0.0305,0.0304,0.0304,0.0294,0.0293,0.0293,0.0269,0.0269,0.0268,0.0268,0.0242,0.0242,0.0241,0,0,0,0,0,0,0,0,0,0,0,0,0,0.029,0.0293,0.0305,0.0292,0.0291,0.0294,0.0293,0.0293,0.027,0.0269,0.0268,0.0268,0.0242,0.0242,0.0241,0.025,0,0,0.024,0.0239,0,0,0,0,0,0,0,0,0.0291,0.0291,0.0294,0.0293,0.0292,0.0283,0.028,0.0278,0.027,0.0277,0.0268,0.0267,0.0255,0.0254,0.0252,0.0249,0.0248,0.024,0.0239,0.0239,0.0239,0,0,0,0,0,0,0,0.0291,0.0291,0.0299,0.0294,0.0292,0.0283,0.0282,0.0279,0.0268,0.0276,0.0274,0.0275,0.0254,0.0252,0.0251,0.0247,0.024,0.0239,0.0239,0.0239,0.0267,0.0268,0,0,0,0,0,0,0.0295,0.0291,0.03,0.0299,0.0291,0.0284,0.0282,0.0286,0.0269,0.0266,0.0275,0.0274,0.0254,0.0252,0.025,0.0284,0.0239,0.0239,0.0238,0.0266,0.0267,0.0268,0,0,0,0,0,0,0.0295,0.0296,0.03,0.0295,0.0295,0.0285,0.0288,0.0286,0.0286,0.0269,0.0265,0.0279,0.0253,0.0251,0.0256,0.0282,0.0238,0.0238,0.0265,0.0266,0.0268,0.0336,0,0,0,0,0,0,0.0295,0.0296,0.0299,0.0296,0.0296,0.031,0.0289,0.0286,0.0288,0.0286,0.0271,0.0267,0.0252,0.0257,0.0256,0.028,0.0238,0.0263,0.0265,0.0267,0.0332,0.034,0.0346,0,0,0,0,0,0.0295,0.0307,0.0299,0.03,0.03,0.0311,0.031,0.0299,0.0289,0.0296,0.0286,0.0268,0.0269,0.0258,0.0256,0.0281,0.0262,0.0265,0.0267,0.0329,0.0338,0.0346,0,0,0,0,0,0,0.0303,0.0306,0.0297,0.0309,0.0312,0.0307,0.0313,0.0306,0.0304,0.0301,0.0281,0.0277,0.0292,0.0277,0.0266,0.0294,0.0263,0.0265,0.0311,0.0319,0.0326,0.035,0.0237,0,0,0,0,0,0.0306,0.0318,0.0316,0.0326,0.0328,0.0321,0.0323,0.0318,0.0316,0.0314,0.0306,0.0298,0.0301,0.0302,0.0298,0.0314,0.0307,0.0329,0.0336,0.0341,0.036,0.0374,0.0384,0.0276,0.0276,0.0276,0,0,0.0312,0.0316,0.0321,0.0329,0.0328,0.0347,0.0321,0.0331,0.0351,0.0312,0.0336,0.0322,0.031,0.0329,0.0334,0.0319,0.0366,0.0344,0.035,0.0366,0.0377,0.0388,0.0397,0.0278,0.0277,0.0277,0,0,0.0341,0.0334,0.0356,0.0362,0.0368,0.0367,0.0374,0.0375,0.0377,0.0395,0.0376,0.0381,0.0379,0.0382,0.0382,0.0425,0.04,0.0419,0.0475,0.0488,0.0497,0.0505,0.0499,0.0506,0.0423,0.0423,0.0423,0,0.0347,0.0376,0.0364,0.0388,0.0402,0.0382,0.0413,0.0416,0.0421,0.0437,0.0411,0.043,0.041,0.0449,0.0459,0.0443,0.0438,0.0445,0.0498,0.0506,0.0513,0.0505,0.0511,0.0427,0.0427,0.0426,0.0426,0,0.0394,0.0417,0.0432,0.0459,0.0469,0.0493,0.0496,0.0512,0.0509,0.0513,0.0544,0.0522,0.0538,0.0527,0.0505,0.0551,0.0526,0.0504,0.0479,0.0528,0.0516,0.0522,0.0432,0.0431,0.043,0.0429,0,0,0.0413,0.0459,0.0464,0.0495,0.051,0.053,0.0565,0.06,0.0643,0.063,0.0691,0.0672,0.0658,0.0658,0.0632,0.0635,0.0665,0.0595,0.0594,0.0593,0.0684,0.0634,0.0635,0.0652,0.0654,0.0655,0.0651,0,0.0457,0.0526,0.0532,0.0597,0.0635,0.0633,0.0677,0.0701,0.0717,0.0769,0.0749,0.079,0.0709,0.0731,0.0718,0.07,0.0686,0.0668,0.0634,0.0633,0.0587,0.0643,0.0621,0.0613,0.0657,0.0658,0.0658,0,0.0501,0.0548,0.062,0.069,0.0705,0.0738,0.0809,0.0848,0.0899,0.0916,0.0937,0.0927,0.0947,0.0869,0.084,0.0833,0.0763,0.0723,0.0722,0.0661,0.0596,0.0573,0.0622,0.055,0.0667,0.0666,0.0666,0,0.0536,0.0609,0.0674,0.0694,0.0764,0.0801,0.0841,0.0895,0.0962,0.1024,0.1091,0.1075,0.112,0.1032,0.0936,0.0899,0.0899,0.0836,0.0714,0.0709,0.0678,0.0667,0.066,0.08,0.08,0.08,0.08,0,0.0586,0.0638,0.0698,0.0738,0.0831,0.0854,0.0963,0.0999,0.1091,0.121,0.1177,0.1277,0.1167,0.1149,0.1007,0.0896,0.0949,0.0744,0.0717,0.0698,0.0689,0.0613,0.0545,0.08,0.08,0.08,0.08,0,0.0617,0.0653,0.074,0.0822,0.0852,0.0922,0.105,0.1145,0.121,0.1373,0.1412,0.1462,0.1441,0.1295,0.1186,0.102,0.0831,0.0825,0.08,0.0769,0.0561,0.0497,0.0437,0.0402,0.0696,0.0695,0.0694,0,0.0643,0.069,0.0798,0.0866,0.0908,0.1016,0.1111,0.1197,0.1316,0.1501,0.1603,0.1636,0.168,0.1484,0.1202,0.0947,0.0829,0.0745,0.0657,0.057,0.0479,0.0437,0.0409,0.0637,0.0636,0.0635,0.0634,0,0.0706,0.0738,0.0816,0.0946,0.105,0.1179,0.1321,0.1432,0.1576,0.1722,0.1908,0.1956,0.1772,0.1535,0.1172,0.0974,0.0681,0.0713,0.0647,0.046,0.0392,0.0339,0.0606,0.0625,0.0626,0.0626,0.0627,0.0627,0.0757,0.0819,0.0921,0.1042,0.117,0.1337,0.1461,0.1635,0.1838,0.2058,0.2103,0.217,0.1817,0.1326,0.1081,0.0613,0.0607,0.0455,0.0392,0.0365,0.0312,0.0547,0.0516,0.0516,0.0516,0.0516,0.0517,0,0.0822,0.0897,0.1017,0.1173,0.1321,0.1371,0.1603,0.1748,0.1997,0.2155,0.2294,0.211,0.1701,0.1259,0.0629,0.035,0.026,0.0212,0.0164,0.0156,0.0395,0.0374,0.0283,0.0283,0.0283,0.0283,0.0284,0.0284,0.0867,0.0979,0.1034,0.1269,0.1387,0.1588,0.1723,0.194,0.2087,0.2254,0.224,0.2212,0.187,0.0875,0.0268,0.0132,-0.0003,-0.0085,-0.0119,0.005,0.0069,0.0088,0.0057,-0.01,-0.01,-0.0315,-0.0318,-0.032]}],[{"header":{"parameterUnit":"m.s-1","parameterCategory":2,"la1":30.2991,"la2":30.254,"lo1":-89.0895,"lo2":-89.0444,"dy":0.0017,"dx":0.0017,"nx":28,"ny":28,"refTime":"2025-07-07T03:00:00:Z","depth":"2","parameterNumber":2,"parameterNumberName":"U-component_of_CURRENTS"},"data":[0,0,0,0,0,0,0,0,0,0,0,0,0,0,0,0,0,0,0,0,0,0,0,0,0,0,0,0,0,0,0,0,0,0,0,0,0,0,0,0,0,0,0,0,0,0,0,0,0,0,0,0,0,0,0,0,0,0,0.27,0.27,0,0.2685,0.2685,0.2684,0.2668,0.2668,0.2668,0.2668,0.27,0.2701,0.2702,0,0,0,0,0,0,0,0,0,0,0,0,0,0.2712,0.2712,0.27,0.27,0.27,0.2685,0.2685,0.2684,0.2668,0.2668,0.2668,0.2668,0.27,0.2701,0.2703,0,0,0,0,0,0,0,0,0,0,0,0,0,0.2702,0.2712,0.27,0.2691,0.269,0.2685,0.2685,0.2684,0.2668,0.2668,0.2668,0.2668,0.27,0.2701,0.2703,0.2716,0,0,0.2707,0.2708,0,0,0,0,0,0,0,0,0.2703,0.2701,0.2692,0.2691,0.269,0.2679,0.2701,0.2698,0.2668,0.2675,0.2668,0.2668,0.2699,0.27,0.2696,0.2717,0.2719,0.2707,0.2708,0.2709,0.2709,0,0,0,0,0,0,0,0.2703,0.2702,0.2693,0.2692,0.2691,0.2687,0.2685,0.27,0.2688,0.2675,0.2674,0.2674,0.2698,0.2694,0.2696,0.2719,0.2707,0.2709,0.271,0.271,0.2816,0.2817,0,0,0,0,0,0,0.2708,0.2703,0.2693,0.2692,0.2697,0.2687,0.2685,0.2682,0.2687,0.2687,0.2674,0.2673,0.2692,0.2695,0.2698,0.2778,0.2709,0.271,0.2711,0.2814,0.2816,0.2818,0,0,0,0,0,0,0.2708,0.2707,0.2694,0.2698,0.2696,0.2687,0.2684,0.2682,0.2685,0.2686,0.2687,0.268,0.2692,0.2695,0.2732,0.2777,0.2711,0.2712,0.2811,0.2814,0.2817,0.2898,0,0,0,0,0,0,0.2708,0.2707,0.2717,0.2698,0.2696,0.2704,0.2684,0.2682,0.2685,0.2684,0.2692,0.2694,0.2692,0.273,0.2733,0.2778,0.2713,0.2809,0.2813,0.2816,0.2893,0.2904,0.2912,0,0,0,0,0,0.2709,0.2717,0.2717,0.2717,0.2706,0.2705,0.2704,0.2695,0.2686,0.2695,0.2707,0.2694,0.2755,0.2732,0.2736,0.2782,0.2807,0.2812,0.2816,0.2889,0.2902,0.2912,0,0,0,0,0,0,0.2716,0.2716,0.2715,0.2721,0.2721,0.2703,0.2707,0.2702,0.2715,0.2719,0.2715,0.272,0.2766,0.2763,0.2738,0.2823,0.2781,0.2786,0.2835,0.2847,0.2856,0.2847,0.2715,0,0,0,0,0,0.2726,0.273,0.2732,0.273,0.2736,0.2724,0.2725,0.2724,0.2727,0.2731,0.2739,0.2757,0.2786,0.2807,0.2821,0.2869,0.2879,0.2903,0.2912,0.292,0.2916,0.2999,0.3016,0.2832,0.2832,0.2832,0,0,0.2728,0.2723,0.2728,0.2732,0.2727,0.2741,0.2724,0.273,0.2746,0.2736,0.2765,0.2785,0.2803,0.2856,0.2878,0.2863,0.2976,0.2926,0.2933,0.2924,0.3005,0.3023,0.3039,0.2835,0.2835,0.2834,0,0,0.2728,0.273,0.2743,0.2747,0.2754,0.2755,0.2762,0.2766,0.2776,0.2811,0.2814,0.286,0.2893,0.2923,0.2941,0.3012,0.3018,0.3027,0.308,0.3161,0.3177,0.3191,0.3219,0.3234,0.3042,0.3042,0.3042,0,0.2735,0.2737,0.2746,0.2756,0.2759,0.2765,0.2781,0.2796,0.2813,0.284,0.2831,0.2915,0.2923,0.3005,0.3031,0.3034,0.3069,0.3035,0.3175,0.3189,0.3202,0.3227,0.3243,0.3046,0.3046,0.3045,0.3045,0,0.2738,0.275,0.2751,0.277,0.2787,0.279,0.282,0.2853,0.287,0.2892,0.2971,0.2999,0.3057,0.3075,0.3073,0.3181,0.3171,0.3172,0.3146,0.3226,0.3246,0.3262,0.3053,0.3051,0.305,0.3049,0,0,0.2733,0.2752,0.2757,0.2771,0.279,0.2807,0.2853,0.2903,0.2954,0.2993,0.3071,0.3121,0.3155,0.3177,0.3201,0.3265,0.3378,0.3267,0.3269,0.3292,0.3541,0.3375,0.3376,0.3426,0.343,0.3432,0.3515,0,0.2731,0.2749,0.2765,0.2797,0.2811,0.2844,0.2881,0.2939,0.2999,0.3084,0.3142,0.3221,0.3191,0.3251,0.3311,0.3368,0.3426,0.3353,0.346,0.3461,0.3305,0.3391,0.3117,0.3155,0.3531,0.3533,0.3535,0,0.2724,0.2744,0.2761,0.2812,0.2825,0.2851,0.294,0.2986,0.3105,0.3164,0.3266,0.3318,0.3423,0.3394,0.3519,0.3486,0.3517,0.3543,0.3548,0.3371,0.3325,0.3138,0.3169,0.3561,0.3559,0.3557,0.3555,0,0.2696,0.2743,0.2752,0.276,0.2821,0.2856,0.2907,0.301,0.3085,0.3242,0.3327,0.344,0.3529,0.3593,0.3628,0.3608,0.3753,0.3733,0.3603,0.359,0.336,0.332,0.3825,0.3825,0.3825,0.3824,0.3824,0,0.266,0.2686,0.2743,0.2747,0.2798,0.2853,0.2945,0.3017,0.3162,0.3257,0.3375,0.3468,0.3595,0.3681,0.3689,0.3681,0.3806,0.3615,0.3612,0.3376,0.3338,0.3687,0.367,0.3827,0.3827,0.3826,0.3826,0,0.2617,0.2637,0.2679,0.2752,0.2774,0.2826,0.2963,0.3032,0.3174,0.3317,0.3378,0.3547,0.3628,0.3703,0.3813,0.3747,0.3762,0.3728,0.3407,0.3363,0.3525,0.3512,0.3592,0.3587,0.3583,0.358,0.3577,0,0.2585,0.2586,0.2674,0.2699,0.273,0.2822,0.2861,0.3017,0.3102,0.3328,0.3376,0.3535,0.357,0.3647,0.3597,0.3574,0.3684,0.3295,0.3182,0.3518,0.3508,0.3501,0.3493,0.2919,0.2911,0.2904,0.2899,0,0.2543,0.2574,0.2614,0.2632,0.2676,0.2773,0.2859,0.2929,0.3099,0.3188,0.3292,0.3345,0.342,0.3262,0.3245,0.3194,0.3267,0.3153,0.3648,0.2997,0.2883,0.2873,0.2888,0.284,0.2846,0.285,0.2853,0.2856,0.252,0.2537,0.2544,0.2584,0.2634,0.269,0.2693,0.2779,0.285,0.2923,0.3072,0.3029,0.3062,0.2861,0.2758,0.2688,0.2905,0.277,0.2791,0.282,0.2704,0.2587,0.2465,0.2468,0.2471,0.2474,0.2476,0,0.247,0.2493,0.2489,0.2512,0.2507,0.2581,0.2645,0.26,0.2574,0.2662,0.2682,0.2444,0.2318,0.2362,0.2149,0.2109,0.2113,0.2026,0.2018,0.2078,0.2131,0.198,0.1549,0.1546,0.1543,0.1541,0,0,0.2443,0.2422,0.242,0.2378,0.2389,0.2334,0.2342,0.2258,0.2264,0.2168,0.2115,0.2249,0.2308,0.1917,0.1842,0.1664,0.1869,0.1598,0.2346,0.24,0.245,0.2563,0.2398,0,0,0,0,0]},{"header":{"parameterUnit":"m.s-1","parameterCategory":2,"la1":30.2991,"la2":30.254,"lo1":-89.0895,"lo2":-89.0444,"dy":0.0017,"dx":0.0017,"nx":28,"ny":28,"refTime":"2025-07-07T03:00:00:Z","depth":"2","parameterNumber":3,"parameterNumberName":"V-component_of_CURRENTS"},"data":[0,0,0,0,0,0,0,0,0,0,0,0,0,0,0,0,0,0,0,0,0,0,0,0,0,0,0,0,0,0,0,0,0,0,0,0,0,0,0,0,0,0,0,0,0,0,0,0,0,0,0,0,0,0,0,0,0,0,0.0134,0.0133,0,0.0118,0.0118,0.0117,0.0106,0.0106,0.0106,0.0106,0.0083,0.0083,0.0082,0,0,0,0,0,0,0,0,0,0,0,0,0,0.0122,0.0122,0.0134,0.0133,0.0133,0.0118,0.0118,0.0117,0.0106,0.0106,0.0106,0.0106,0.0083,0.0083,0.0082,0,0,0,0,0,0,0,0,0,0,0,0,0,0.0118,0.0122,0.0134,0.0126,0.0125,0.0118,0.0118,0.0117,0.0106,0.0106,0.0106,0.0106,0.0083,0.0083,0.0082,0.0078,0,0,0.0079,0.0079,0,0,0,0,0,0,0,0,0.0118,0.0119,0.0127,0.0127,0.0126,0.0114,0.0105,0.0104,0.0106,0.0113,0.0106,0.0106,0.0093,0.0092,0.0088,0.0077,0.0076,0.0079,0.0079,0.0078,0.0078,0,0,0,0,0,0,0,0.0119,0.0119,0.0127,0.0127,0.0126,0.0113,0.0112,0.0105,0.0103,0.0112,0.0111,0.0111,0.0093,0.0089,0.0087,0.0075,0.0079,0.0078,0.0078,0.0078,0.0074,0.0075,0,0,0,0,0,0,0.0124,0.0119,0.0127,0.0126,0.0123,0.0113,0.0113,0.0118,0.0103,0.0101,0.0111,0.011,0.009,0.0088,0.0087,0.0109,0.0078,0.0077,0.0077,0.0074,0.0074,0.0075,0,0,0,0,0,0,0.0124,0.0125,0.0128,0.0123,0.0122,0.0114,0.0119,0.0117,0.0117,0.0102,0.01,0.0113,0.009,0.0088,0.0089,0.0107,0.0077,0.0076,0.0073,0.0074,0.0075,0.0137,0,0,0,0,0,0,0.0123,0.0125,0.0129,0.0123,0.0123,0.0131,0.0119,0.0117,0.0117,0.0116,0.0103,0.0101,0.009,0.009,0.0088,0.0106,0.0076,0.0073,0.0074,0.0074,0.0134,0.0139,0.0144,0,0,0,0,0,0.0123,0.0134,0.0129,0.013,0.0129,0.0132,0.0131,0.0123,0.0117,0.0122,0.0115,0.0102,0.0094,0.009,0.0087,0.0105,0.0072,0.0073,0.0074,0.0132,0.0138,0.0144,0,0,0,0,0,0,0.0129,0.0134,0.0128,0.0139,0.0137,0.013,0.0133,0.0127,0.0124,0.0124,0.0108,0.0106,0.0113,0.0097,0.0094,0.0105,0.008,0.0081,0.0125,0.0131,0.0136,0.0153,0.0075,0,0,0,0,0,0.0132,0.0143,0.0141,0.0148,0.0149,0.0141,0.014,0.0137,0.0133,0.0132,0.0125,0.0116,0.0114,0.0113,0.0106,0.0113,0.0099,0.012,0.0125,0.013,0.0141,0.0143,0.0149,0.0078,0.0078,0.0078,0,0,0.0135,0.0139,0.0144,0.015,0.0147,0.0162,0.0141,0.0145,0.0161,0.013,0.0148,0.0133,0.0118,0.0129,0.013,0.0119,0.0139,0.0131,0.0135,0.0144,0.0144,0.0152,0.0158,0.0079,0.0078,0.0078,0,0,0.0155,0.0152,0.0171,0.0176,0.0178,0.0175,0.018,0.0178,0.018,0.019,0.0175,0.0173,0.0167,0.0165,0.0162,0.0187,0.0164,0.0181,0.0224,0.0226,0.0232,0.0237,0.0217,0.022,0.0185,0.0186,0.0186,0,0.016,0.0185,0.0175,0.0197,0.0208,0.0187,0.0213,0.0212,0.0212,0.0223,0.0205,0.0208,0.0188,0.0212,0.0216,0.0201,0.019,0.0206,0.0234,0.0239,0.0243,0.0221,0.0224,0.0189,0.0188,0.0188,0.0188,0,0.0198,0.0218,0.023,0.0254,0.0261,0.0278,0.0279,0.0288,0.0283,0.0284,0.0302,0.0277,0.0284,0.0272,0.0251,0.0276,0.0253,0.024,0.0223,0.0255,0.0229,0.023,0.0193,0.0192,0.0191,0.019,0,0,0.0216,0.0252,0.0257,0.0284,0.0295,0.0312,0.0335,0.0358,0.0391,0.0374,0.0418,0.0392,0.0378,0.0373,0.0348,0.0341,0.0348,0.0307,0.0305,0.0294,0.034,0.0292,0.0289,0.0344,0.0345,0.0345,0.0305,0,0.0252,0.031,0.0314,0.037,0.0402,0.0397,0.0428,0.0443,0.0451,0.0486,0.0458,0.0486,0.0418,0.0434,0.0413,0.0375,0.0358,0.036,0.0305,0.0303,0.0263,0.0291,0.0306,0.027,0.0306,0.0307,0.0307,0,0.0292,0.033,0.039,0.0447,0.0461,0.0488,0.0542,0.0568,0.0597,0.061,0.0618,0.0601,0.0594,0.0536,0.0475,0.0482,0.0415,0.0371,0.0368,0.0307,0.0259,0.0245,0.0271,0.0309,0.0309,0.0309,0.0309,0,0.0323,0.0385,0.0437,0.0455,0.051,0.054,0.057,0.0606,0.0662,0.0699,0.075,0.0715,0.0735,0.0645,0.0535,0.0516,0.0463,0.0426,0.0314,0.0309,0.0303,0.0296,0.0383,0.0383,0.0383,0.0383,0.0383,0,0.0364,0.0411,0.0459,0.0493,0.0571,0.0588,0.0679,0.0702,0.0774,0.0869,0.0822,0.0888,0.0768,0.072,0.0585,0.0457,0.0498,0.033,0.0304,0.0321,0.0317,0.0337,0.0332,0.0381,0.0382,0.0382,0.0382,0,0.0394,0.042,0.0496,0.0564,0.0588,0.0649,0.0762,0.084,0.0887,0.1014,0.1041,0.104,0.0972,0.0822,0.0691,0.0545,0.0412,0.0351,0.0365,0.0341,0.0238,0.0237,0.0226,0.0224,0.0223,0.0221,0.022,0,0.0417,0.0455,0.0549,0.0608,0.0643,0.0738,0.0815,0.089,0.0991,0.1113,0.1188,0.1165,0.1152,0.0915,0.068,0.0439,0.0406,0.0279,0.0236,0.025,0.0226,0.0227,0.0228,0.0246,0.0246,0.0245,0.0244,0,0.0471,0.0499,0.0564,0.0672,0.0761,0.0886,0.1004,0.1104,0.1217,0.1309,0.1415,0.1406,0.1201,0.0969,0.0637,0.0466,0.0312,0.0256,0.0299,0.0277,0.0264,0.0242,0.0244,0.0239,0.0239,0.024,0.024,0.024,0.0514,0.0569,0.0645,0.0755,0.0869,0.1027,0.1133,0.127,0.1422,0.156,0.1549,0.1521,0.1269,0.0837,0.0564,0.0277,0.0287,0.016,0.0164,0.0169,0.0172,0.0157,0.011,0.011,0.011,0.011,0.011,0,0.0569,0.063,0.0727,0.0868,0.1004,0.1055,0.1256,0.1361,0.1534,0.1625,0.1672,0.1408,0.1147,0.0855,0.0438,0.0174,0.0164,0.0074,0.0127,0.0135,0.014,0.0144,0.0074,0.0073,0.0072,0.0072,0,0,0.0602,0.0691,0.0739,0.0953,0.1066,0.1249,0.1369,0.15,0.1594,0.1659,0.1634,0.1571,0.1228,0.091,0.0567,0.033,0.0288,0.0269,0.0324,0.0435,0.0445,0.0212,0.0227,0,0,0,0,0]}],[{"header":{"parameterUnit":"m.s-1","parameterCategory":2,"la1":30.2991,"la2":30.254,"lo1":-89.0895,"lo2":-89.0444,"dy":0.0017,"dx":0.0017,"nx":28,"ny":28,"refTime":"2025-07-07T03:00:00:Z","depth":"4","parameterNumber":2,"parameterNumberName":"U-component_of_CURRENTS"},"data":[0,0,0,0,0,0,0,0,0,0,0,0,0,0,0,0,0,0,0,0,0,0,0,0,0,0,0,0,0,0,0,0,0,0,0,0,0,0,0,0,0,0,0,0,0,0,0,0,0,0,0,0,0,0,0,0,0,0,0.1614,0.1614,0,0.166,0.1661,0.1661,0.1719,0.172,0.1722,0.1723,0.1757,0.1757,0.1757,0,0,0,0,0,0,0,0,0,0,0,0,0,0.1559,0.1559,0.1614,0.1614,0.1615,0.166,0.1661,0.1661,0.1719,0.172,0.1722,0.1723,0.1758,0.1757,0.1757,0,0,0,0,0,0,0,0,0,0,0,0,0,0.1589,0.1559,0.1613,0.1652,0.1656,0.166,0.1661,0.1661,0.1719,0.1721,0.1722,0.1724,0.1758,0.1757,0.1757,0.1721,0,0,0.1756,0.1756,0,0,0,0,0,0,0,0,0.1587,0.1591,0.1645,0.1649,0.1654,0.1688,0.1654,0.1681,0.1718,0.1692,0.1723,0.1725,0.1733,0.1735,0.1737,0.1722,0.1724,0.1756,0.1756,0.1756,0.1756,0,0,0,0,0,0,0,0.1585,0.1589,0.1629,0.1646,0.1651,0.1661,0.1667,0.1659,0.17,0.1694,0.1699,0.1708,0.1736,0.1737,0.1738,0.1724,0.1756,0.1756,0.1756,0.1756,0.1817,0.1818,0,0,0,0,0,0,0.1583,0.1587,0.1628,0.1631,0.1627,0.1661,0.1668,0.1673,0.1701,0.1707,0.1707,0.1711,0.1736,0.1738,0.1739,0.1806,0.1756,0.1756,0.1756,0.1815,0.1817,0.1819,0,0,0,0,0,0,0.1582,0.1586,0.1626,0.1612,0.1619,0.166,0.1666,0.1673,0.1712,0.1711,0.1717,0.1742,0.1738,0.174,0.1768,0.1803,0.1756,0.1756,0.1813,0.1816,0.1818,0.1868,0,0,0,0,0,0,0.158,0.1585,0.1602,0.1612,0.1619,0.165,0.1665,0.1673,0.1713,0.172,0.1742,0.1745,0.1739,0.1768,0.1768,0.1802,0.1755,0.1811,0.1814,0.1817,0.1864,0.1872,0.1879,0,0,0,0,0,0.1578,0.1587,0.1602,0.1608,0.1636,0.1651,0.1656,0.1689,0.1714,0.173,0.1753,0.1747,0.179,0.1769,0.1768,0.1803,0.1809,0.1813,0.1817,0.1861,0.1871,0.1879,0,0,0,0,0,0,0.1575,0.1594,0.1611,0.1628,0.165,0.1663,0.1688,0.1706,0.1736,0.1756,0.1755,0.1759,0.1802,0.1794,0.1771,0.1834,0.1803,0.1807,0.1838,0.1846,0.1854,0.1844,0.1755,0,0,0,0,0,0.158,0.1595,0.1613,0.1633,0.1647,0.1674,0.1691,0.1714,0.1735,0.1753,0.1769,0.1792,0.1809,0.1822,0.1833,0.1854,0.1861,0.1882,0.1889,0.1895,0.1889,0.1952,0.1964,0.1832,0.1832,0.1832,0,0,0.1587,0.16,0.1611,0.1635,0.1659,0.1678,0.1689,0.1727,0.1753,0.1748,0.1799,0.1816,0.1822,0.1856,0.1875,0.1858,0.1937,0.19,0.1905,0.1896,0.1957,0.197,0.1981,0.1835,0.1834,0.1834,0,0,0.1595,0.1621,0.1635,0.1654,0.1694,0.1706,0.1724,0.1757,0.1788,0.1827,0.184,0.1876,0.1902,0.1912,0.1918,0.1969,0.1976,0.1989,0.2014,0.2076,0.2087,0.2097,0.2119,0.2131,0.1991,0.1991,0.1991,0,0.161,0.1622,0.1643,0.1662,0.1681,0.1722,0.174,0.1771,0.1813,0.1838,0.1858,0.192,0.1926,0.196,0.1983,0.1985,0.2014,0.1977,0.2085,0.2095,0.2104,0.2125,0.2137,0.1994,0.1994,0.1993,0.1993,0,0.1615,0.1642,0.1656,0.169,0.1709,0.1739,0.1775,0.1816,0.1863,0.1892,0.1959,0.1977,0.2015,0.203,0.202,0.2088,0.2085,0.2089,0.206,0.2121,0.2138,0.215,0.1998,0.1997,0.1996,0.1996,0,0,0.1605,0.1651,0.166,0.1675,0.1729,0.1737,0.1794,0.1839,0.1883,0.1946,0.2004,0.2042,0.2074,0.2083,0.2092,0.2135,0.222,0.2144,0.2146,0.2159,0.2346,0.2178,0.2174,0.226,0.2263,0.2264,0.233,0,0.161,0.1635,0.1661,0.1693,0.1706,0.1758,0.1799,0.1852,0.1914,0.1984,0.2036,0.2098,0.2091,0.2127,0.2173,0.2219,0.2255,0.2201,0.229,0.2291,0.213,0.2183,0.2272,0.2338,0.2341,0.2343,0.2344,0,0.16,0.1617,0.1644,0.1686,0.1699,0.1731,0.1799,0.1846,0.195,0.201,0.209,0.2139,0.2216,0.2211,0.2316,0.2292,0.2319,0.2343,0.2347,0.2176,0.2144,0.2267,0.2365,0.2363,0.2362,0.236,0.2359,0,0.1551,0.16,0.1618,0.1634,0.1693,0.1726,0.1771,0.186,0.1914,0.2044,0.2115,0.2204,0.2284,0.2342,0.2395,0.238,0.2504,0.2489,0.2351,0.234,0.2449,0.2437,0.2553,0.2553,0.2553,0.2553,0.2553,0,0.152,0.1538,0.1604,0.1612,0.1647,0.1701,0.1763,0.1834,0.1948,0.2017,0.2136,0.2203,0.2333,0.2412,0.2433,0.2425,0.2543,0.2352,0.2349,0.2467,0.2457,0.2456,0.2444,0.2555,0.2555,0.2554,0.2554,0,0.1451,0.1504,0.1523,0.1592,0.1626,0.1649,0.1759,0.18,0.1935,0.2038,0.2092,0.2249,0.235,0.2433,0.2534,0.2462,0.2473,0.2436,0.2548,0.2551,0.2253,0.2243,0.2279,0.2274,0.227,0.2266,0.2263,0,0.1407,0.1416,0.1495,0.1515,0.1554,0.1614,0.166,0.1788,0.1829,0.2036,0.2065,0.2229,0.2314,0.2327,0.2417,0.2436,0.2405,0.238,0.2304,0.2233,0.2228,0.2225,0.2221,0.2256,0.2254,0.2253,0.2252,0,0.1318,0.1368,0.1388,0.1429,0.1478,0.1521,0.1593,0.1619,0.1767,0.1917,0.2,0.2062,0.2169,0.2229,0.2266,0.2271,0.2379,0.2332,0.234,0.2269,0.2205,0.2203,0.2205,0.2237,0.2239,0.224,0.2241,0,0.126,0.1252,0.1294,0.1313,0.1373,0.1392,0.1455,0.1506,0.1577,0.1795,0.1817,0.2002,0.2151,0.2143,0.2175,0.2172,0.2127,0.2035,0.2058,0.2076,0.1976,0.1863,0.1786,0,0,0,0,0,0.1194,0.1169,0.1171,0.1189,0.1241,0.1285,0.1382,0.1449,0.1603,0.1614,0.1709,0.1797,0.1873,0.1954,0.1909,0.2063,0.2123,0.1997,0.2025,0.215,0.2168,0.2067,0,0,0,0,0,0,0.1149,0.1151,0.1125,0.1073,0.1073,0.1126,0.1193,0.1311,0.1308,0.1484,0.1536,0.167,0.1768,0.1892,0.1876,0.1896,0.1868,0.2099,0.2093,0.214,0.2156,0.2171,0.2073,0,0,0,0,0]},{"header":{"parameterUnit":"m.s-1","parameterCategory":2,"la1":30.2991,"la2":30.254,"lo1":-89.0895,"lo2":-89.0444,"dy":0.0017,"dx":0.0017,"nx":28,"ny":28,"refTime":"2025-07-07T03:00:00:Z","depth":"4","parameterNumber":3,"parameterNumberName":"V-component_of_CURRENTS"},"data":[0,0,0,0,0,0,0,0,0,0,0,0,0,0,0,0,0,0,0,0,0,0,0,0,0,0,0,0,0,0,0,0,0,0,0,0,0,0,0,0,0,0,0,0,0,0,0,0,0,0,0,0,0,0,0,0,0,0,0.0072,0.0071,0,0.0062,0.0062,0.0062,0.0055,0.0055,0.0055,0.0055,0.0039,0.0039,0.0038,0,0,0,0,0,0,0,0,0,0,0,0,0,0.0061,0.0062,0.0072,0.0071,0.0071,0.0062,0.0062,0.0062,0.0055,0.0055,0.0055,0.0055,0.0039,0.0039,0.0038,0,0,0,0,0,0,0,0,0,0,0,0,0,0.006,0.0062,0.0072,0.0067,0.0067,0.0062,0.0062,0.0062,0.0055,0.0055,0.0055,0.0055,0.0039,0.0039,0.0038,0.0035,0,0,0.0036,0.0036,0,0,0,0,0,0,0,0,0.006,0.006,0.0068,0.0067,0.0067,0.006,0.0053,0.0053,0.0055,0.0059,0.0055,0.0055,0.0046,0.0045,0.0042,0.0035,0.0034,0.0036,0.0036,0.0036,0.0036,0,0,0,0,0,0,0,0.006,0.006,0.0067,0.0068,0.0067,0.0058,0.0058,0.0053,0.0052,0.0058,0.0058,0.0058,0.0045,0.0043,0.0042,0.0034,0.0036,0.0036,0.0035,0.0035,0.003,0.003,0,0,0,0,0,0,0.0063,0.0061,0.0068,0.0067,0.0064,0.0058,0.0058,0.0062,0.0052,0.0051,0.0058,0.0057,0.0044,0.0043,0.0041,0.0055,0.0036,0.0035,0.0035,0.003,0.003,0.003,0,0,0,0,0,0,0.0063,0.0064,0.0068,0.0064,0.0064,0.0059,0.0063,0.0062,0.0063,0.0052,0.005,0.006,0.0044,0.0042,0.0043,0.0054,0.0035,0.0034,0.003,0.003,0.003,0.0072,0,0,0,0,0,0,0.0063,0.0064,0.0067,0.0064,0.0064,0.0071,0.0063,0.0062,0.0063,0.0062,0.0054,0.0052,0.0044,0.0044,0.0042,0.0053,0.0034,0.0029,0.003,0.003,0.007,0.0074,0.0076,0,0,0,0,0,0.0063,0.0071,0.0067,0.0068,0.0069,0.0071,0.0071,0.0066,0.0063,0.0066,0.0061,0.0052,0.0045,0.0044,0.0042,0.0053,0.0029,0.003,0.003,0.0069,0.0073,0.0076,0,0,0,0,0,0,0.0067,0.0071,0.0067,0.0075,0.0074,0.007,0.0073,0.0069,0.0068,0.0067,0.0057,0.0055,0.0059,0.0048,0.0047,0.0051,0.0035,0.0035,0.0065,0.0069,0.0072,0.0084,0.0033,0,0,0,0,0,0.0069,0.0077,0.0076,0.0082,0.0083,0.0078,0.0078,0.0076,0.0074,0.0073,0.0068,0.0061,0.0059,0.0058,0.0052,0.0056,0.0036,0.006,0.0063,0.0066,0.0073,0.0053,0.0056,0.0032,0.0032,0.0032,0,0,0.0072,0.0075,0.0079,0.0083,0.0082,0.0093,0.0078,0.0082,0.0095,0.0071,0.0086,0.0073,0.0062,0.0067,0.0068,0.006,0.006,0.0066,0.0069,0.0075,0.0054,0.0057,0.0059,0.0032,0.0032,0.0032,0,0,0.0087,0.0085,0.0098,0.0102,0.0105,0.0103,0.0106,0.0106,0.0109,0.0117,0.0104,0.0099,0.0096,0.0091,0.0087,0.0103,0.0077,0.0099,0.0126,0.0107,0.0109,0.011,0.0079,0.0077,0.0101,0.0101,0.0101,0,0.009,0.0108,0.0101,0.0117,0.0127,0.0112,0.0132,0.0132,0.0132,0.014,0.0127,0.0123,0.0109,0.0119,0.0122,0.0112,0.0091,0.0115,0.0112,0.0113,0.0113,0.0081,0.0079,0.0103,0.0102,0.0102,0.0102,0,0.0116,0.0132,0.0141,0.0158,0.0166,0.018,0.0182,0.0189,0.0187,0.0186,0.0194,0.0171,0.0169,0.0161,0.0147,0.0149,0.0128,0.0118,0.0104,0.0118,0.0083,0.008,0.0106,0.0105,0.0104,0.0104,0,0,0.0125,0.0154,0.0159,0.0181,0.0192,0.0206,0.0226,0.0243,0.0265,0.0249,0.0272,0.0253,0.0234,0.0228,0.0205,0.0185,0.0164,0.0156,0.0154,0.0129,0.0112,0.0102,0.0098,0.0153,0.0153,0.0153,0.0082,0,0.015,0.0194,0.02,0.0244,0.0269,0.0271,0.0297,0.0308,0.031,0.0325,0.0296,0.0305,0.0262,0.0263,0.0234,0.0187,0.0159,0.0184,0.0099,0.0096,0.0089,0.0095,0.0153,0.0079,0.0078,0.0078,0.0077,0,0.0175,0.0206,0.0254,0.0304,0.0316,0.0339,0.0382,0.0404,0.0412,0.0415,0.0404,0.0378,0.035,0.0312,0.023,0.0247,0.0184,0.0139,0.0135,0.0112,0.0082,0.0063,0.0071,0.0072,0.0072,0.0073,0.0073,0,0.0194,0.0245,0.0289,0.0305,0.0353,0.0381,0.0409,0.0432,0.0468,0.0473,0.049,0.0442,0.0428,0.0346,0.024,0.0237,0.0142,0.0127,0.0055,0.0053,0.0064,0.0063,0.0068,0.0068,0.0068,0.0069,0.0069,0,0.0222,0.0259,0.0305,0.0333,0.0399,0.0418,0.0489,0.0505,0.0541,0.0584,0.0539,0.0549,0.0437,0.0365,0.0261,0.0146,0.0153,0.0062,0.0039,0.0081,0.0083,0.0061,0.0061,0.0066,0.0066,0.0067,0.0067,0,0.0235,0.0262,0.0323,0.0384,0.041,0.046,0.0551,0.0603,0.0622,0.0675,0.068,0.063,0.0539,0.0413,0.0276,0.0183,0.007,0.0025,0.0073,0.0053,-0.0014,-0.0011,-0.0054,-0.0055,-0.0056,-0.0056,-0.0057,0,0.0246,0.0277,0.0361,0.0411,0.0444,0.0526,0.059,0.0641,0.0692,0.0722,0.0742,0.0677,0.0623,0.0423,0.0283,0.0086,0.0055,-0.0015,-0.0009,-0.0006,-0.0025,-0.002,-0.0017,-0.0058,-0.0058,-0.0058,-0.0058,0,0.0272,0.0299,0.0352,0.045,0.0526,0.062,0.0702,0.0743,0.0797,0.0815,0.0797,0.0699,0.0595,0.0431,0.0277,0.0134,0.0027,-0.0023,-0.0022,-0.0018,-0.0011,-0.0028,-0.0023,-0.0061,-0.006,-0.006,-0.006,0,0.0294,0.0333,0.0402,0.049,0.0588,0.0678,0.0727,0.0784,0.0832,0.0847,0.0836,0.0727,0.0661,0.0455,0.0312,0.0173,0.0136,0.0078,0.0072,0.0073,0.0129,0.0157,0.0143,0,0,0,0,0,0.0316,0.0361,0.0442,0.0541,0.0638,0.0694,0.0788,0.0827,0.0867,0.0861,0.0851,0.0753,0.0557,0.0473,0.0334,0.0291,0.0105,0.012,0.0033,-0.0074,-0.0071,-0.0028,0,0,0,0,0,0,0.0334,0.0402,0.0439,0.0564,0.0637,0.0747,0.0809,0.0839,0.0833,0.0844,0.0745,0.0702,0.0513,0.0636,0.0326,0.0285,0.0206,0.0033,0.0029,-0.0076,-0.0073,-0.0071,-0.0026,0,0,0,0,0]}]]